EW5828 Edisto Island SC US current weather conditions

sailwx.info

Wind from 074

Air temperature 26.1° C
Dewpoint 22.0° C

Last reported at 2020-Jul-11 13:02 UTC.
Time now 2020-Jul-11 13:56 UTC

Location: N 32°34' W 080°20'.
View on Google Maps.

See reports from other nearby stations

  
Tides and Currents Weather Stations Pressure Air Temp Water Temp Dewpoint Dewpoint Depression Visibility Wind Speed Wind Dir Waves Ship Positions
date/time (UTC)wind fromknots sea level pressurealtimeterstation pressurevisibilityair tempwater tempwave heightnotes
2020-Jul-11 13:02 074 26.1
2020-Jul-11 12:45 074 26.1
2020-Jul-11 12:30 109 26.1
2020-Jul-11 12:15 013 25.6
2020-Jul-11 11:48 013 25.0
2020-Jul-11 11:31 013 25.0
2020-Jul-11 11:16 013 25.0
2020-Jul-11 11:00 013 25.0
2020-Jul-11 10:45 013 25.0
2020-Jul-11 10:30 013 25.0
2020-Jul-11 10:16 013 25.0
2020-Jul-11 10:02 013 25.6
2020-Jul-11 09:46 013 25.6
2020-Jul-11 09:31 013 25.6
2020-Jul-11 09:15 013 25.6
2020-Jul-11 09:01 013 26.1
2020-Jul-11 08:46 013 26.1
2020-Jul-11 08:33 013 26.1
2020-Jul-11 08:15 013 26.1
2020-Jul-11 08:00 013 26.1
2020-Jul-11 07:45 013 26.7
2020-Jul-11 07:31 013 26.7
2020-Jul-11 07:19 013 26.7
2020-Jul-11 07:00 013 26.7
2020-Jul-11 06:45 013 26.7
2020-Jul-11 06:30 013 26.7
2020-Jul-11 06:15 014 26.1
2020-Jul-11 06:03 014 26.1
2020-Jul-11 05:46 014 26.1
2020-Jul-11 05:31 014 26.1
2020-Jul-11 05:15 014 26.1
2020-Jul-11 04:47 014 25.6
2020-Jul-11 04:31 014 25.6
2020-Jul-11 04:15 014 25.6
2020-Jul-11 04:00 014 25.6
2020-Jul-11 03:45 014 25.6
2020-Jul-11 03:17 014 25.6
2020-Jul-11 02:45 014 26.1
2020-Jul-11 02:30 014 26.1
2020-Jul-11 02:00 014 26.7
2020-Jul-11 01:46 014 26.7
2020-Jul-11 01:31 014 26.7
2020-Jul-11 01:15 014 26.7
2020-Jul-11 01:00 014 26.7
2020-Jul-11 00:45 014 26.7
2020-Jul-11 00:16 014 27.2
2020-Jul-11 00:00 014 27.2
2020-Jul-10 23:45 014 27.8
2020-Jul-10 23:30 014 27.8
2020-Jul-10 23:15 014 27.8
2020-Jul-10 22:46 014 27.8
2020-Jul-10 22:31 014 27.8
2020-Jul-10 22:16 014 28.9
2020-Jul-10 22:01 014 29.4
2020-Jul-10 21:45 014 30.0
2020-Jul-10 21:30 014 30.6
2020-Jul-10 21:01 014 31.7
2020-Jul-10 20:45 014 31.7
2020-Jul-10 20:30 351 32.2
2020-Jul-10 20:15 295 32.2
2020-Jul-10 20:02 345 31.7
2020-Jul-10 19:45 324 31.1
2020-Jul-10 19:31 299 31.1
2020-Jul-10 19:15 298 31.1
2020-Jul-10 19:00 298 31.1
2020-Jul-10 18:47 298 32.2
2020-Jul-10 18:31 298 32.2
2020-Jul-10 18:16 281 31.7
2020-Jul-10 18:00 327 30.6
2020-Jul-10 17:45 009 30.6
2020-Jul-10 17:31 009 30.6
2020-Jul-10 17:16 009 31.1
2020-Jul-10 17:00 011 31.1
2020-Jul-10 16:45 024 30.6
2020-Jul-10 16:16 333 30.0
2020-Jul-10 16:02 236 30.0
2020-Jul-10 15:45 090 29.4
2020-Jul-10 15:30 319 28.3
2020-Jul-10 15:15 018 28.3
2020-Jul-10 14:48 319 27.8
2020-Jul-10 14:30 027 27.8
2020-Jul-10 14:15 026 27.2
2020-Jul-10 14:00 025 26.7
2020-Jul-10 13:46 025 26.1
2020-Jul-10 13:31 025 26.1
2020-Jul-10 13:16 025 25.6
2020-Jul-10 13:01 025 25.6
2020-Jul-10 12:46 025 25.6
2020-Jul-10 12:30 025 25.0
2020-Jul-10 12:16 025 25.0
2020-Jul-10 12:01 025 25.0
2020-Jul-10 11:46 025 25.0
2020-Jul-10 11:30 025 24.4
2020-Jul-10 11:15 025 24.4
2020-Jul-10 11:00 025 24.4
2020-Jul-10 10:31 025 24.4
2020-Jul-10 10:16 025 24.4
2020-Jul-10 10:01 025 24.4
2020-Jul-10 09:45 025 24.4
2020-Jul-10 09:30 025 24.4
2020-Jul-10 09:15 025 24.4
2020-Jul-10 09:01 025 25.0
2020-Jul-10 08:47 025 25.0
2020-Jul-10 08:31 025 25.0
2020-Jul-10 08:15 025 25.0
2020-Jul-10 08:00 025 25.0
2020-Jul-10 07:45 025 25.0
2020-Jul-10 07:16 025 25.0
2020-Jul-10 07:01 025 25.0
2020-Jul-10 06:46 025 25.0
2020-Jul-10 06:31 025 25.0
2020-Jul-10 06:15 025 25.6
2020-Jul-10 06:00 025 25.6
2020-Jul-10 05:45 025 25.6
2020-Jul-10 05:31 025 25.6
2020-Jul-10 05:16 025 26.1
2020-Jul-10 05:01 025 26.1
2020-Jul-10 04:45 025 26.1
2020-Jul-10 04:31 025 26.1
2020-Jul-10 04:15 025 26.1
2020-Jul-10 04:00 025 26.1
2020-Jul-10 03:32 025 26.1
2020-Jul-10 03:18 025 26.1
2020-Jul-10 03:01 025 26.1
2020-Jul-10 02:45 025 26.1
2020-Jul-10 02:30 025 26.1
2020-Jul-10 02:15 025 26.7
2020-Jul-10 01:48 025 26.7
2020-Jul-10 01:31 031 26.7
2020-Jul-10 01:15 031 26.7
2020-Jul-10 01:00 031 27.2
2020-Jul-10 00:45 031 27.2
2020-Jul-10 00:30 031 27.8
2020-Jul-10 00:15 031 27.8
2020-Jul-10 00:02 031 28.3
2020-Jul-09 23:47 031 28.3
2020-Jul-09 23:31 031 28.9
2020-Jul-09 23:15 020 28.9
2020-Jul-09 23:00 360 29.4
2020-Jul-09 22:46 360 29.4
2020-Jul-09 22:16 360 30.0
2020-Jul-09 22:01 360 30.0
2020-Jul-09 21:47 360 30.0
2020-Jul-09 21:31 360 29.4
2020-Jul-09 21:16 360 29.4
2020-Jul-09 21:01 360 29.4
2020-Jul-09 20:45 360 28.9
2020-Jul-09 20:30 360 28.9
2020-Jul-09 20:15 360 29.4
2020-Jul-09 19:46 005 29.4
2020-Jul-09 19:31 005 28.9
2020-Jul-09 19:15 005 28.9
2020-Jul-09 19:01 005 29.4
2020-Jul-09 18:45 017 29.4
2020-Jul-09 18:16 189 29.4
2020-Jul-09 18:01 342 28.9
2020-Jul-09 17:46 298 29.4
2020-Jul-09 17:30 360 29.4
2020-Jul-09 17:15 060 28.9
2020-Jul-09 17:00 212 28.9
2020-Jul-09 16:31 041 27.8
2020-Jul-09 16:17 331 27.8
2020-Jul-09 16:01 224 27.2
2020-Jul-09 15:45 241 26.7
2020-Jul-09 15:30 237 26.1
2020-Jul-09 15:16 333 26.1
2020-Jul-09 15:02 303 25.6
2020-Jul-09 14:46 075 25.6
2020-Jul-09 14:32 075 25.0
2020-Jul-09 14:15 078 25.0
2020-Jul-09 14:00 078 25.0
2020-Jul-09 13:45 089 25.0
2020-Jul-09 13:17 088 24.4
2020-Jul-09 13:01 355 24.4